Weather History for Tomahawk, WI

Change the Weather History Date:

Tuesday, October 15, 2013

  Actual Average (KRHI) Record (KRHI)
Temperature  
Mean Temperature 48 °F 44 °F  
Max Temperature 52 °F 54 °F 84 °F (1947)
Min Temperature 45 °F 34 °F 17 °F (2002)
Degree Days  
Heating Degree Days 16 21  
Month to date heating degree days 280  
Since 1 July heating degree days 712  
Cooling Degree Days 0 0  
Month to date cooling degree days 0  
Year to date cooling degree days 259  
Moisture  
Dew Point 46 °F    
Average Humidity 92    
Maximum Humidity 97    
Minimum Humidity 77    
Precipitation  
Precipitation 1.11 in 0.10 in 2.03 in (1966)
Month to date precipitation 1.69  
Year to date precipitation 26.77  
Snow  
Snow 0.00 in - T in (2009)
Month to date snowfall  
Since 1 July snowfall  
Since 1 September snowfall  
Snow Depth -    
Sea Level Pressure  
Sea Level Pressure 29.84 in    
Wind  
Wind Speed 5 mph (SE)    
Max Wind Speed 10 mph    
Max Gust Speed 18 mph    
Visibility 5 miles    
Events Rain    
T = Trace of Precipitation, MM = Missing Value Source: NWS Daily Summary

Daily Weather History Graph

Daily Weather History Graph

Search for Another Location

Airport:

Trip Planner

Search our weather history database for the weather conditions in past years. The results will help you decide how hot, cold, wet, or windy it might be!

Date:

Astronomy

Oct. 15, 2013 Rise Set
Actual Time 7:15 AM CDT 6:13 PM CDT
Civil Twilight 6:45 AM CDT 6:43 PM CDT
Nautical Twilight 6:11 AM CDT 7:17 PM CDT
Astronomical Twilight 5:37 AM CDT 7:51 PM CDT
Moon 4:26 PM CDT (10/15) 3:29 AM CDT (10/15)
Length of Visible Light 11h 57m
Length of Day
10h 57m
Waxing Gibbous, 88% of the Moon is Illuminated
Oct 15
Waxing Gibbous
Oct 18
Full
Oct 26
Last Quarter
Nov 3
New
Nov 9
First Quarter

Hourly Weather History & Observations

Time (CDT) Temp. Windchill Dew Point Humidity Pressure Visibility Wind Dir Wind Speed Gust Speed Precip Events Conditions
12:15 AM 46.4 °F 42.4 °F 40.1 °F 79% 30.14 in 10.0 mi ESE 8.1 mph - N/A   Clear
12:35 AM 46.4 °F 42.4 °F 39.6 °F 77% 30.14 in 10.0 mi East 8.1 mph - N/A   Clear
12:55 AM 46.4 °F 44.3 °F 39.6 °F 77% 30.14 in 10.0 mi ESE 4.6 mph - N/A   Scattered Clouds
1:15 AM 46.4 °F 43.5 °F 39.7 °F 78% 30.12 in 10.0 mi ESE 5.8 mph - N/A   Scattered Clouds
1:35 AM 46.4 °F 44.3 °F 39.9 °F 78% 30.10 in 10.0 mi ESE 4.6 mph - N/A   Clear
1:55 AM 46.4 °F 43.5 °F 40.3 °F 79% 30.10 in 10.0 mi ESE 5.8 mph - N/A   Scattered Clouds
2:15 AM 46.8 °F - 40.6 °F 79% 30.09 in 10.0 mi ESE 5.8 mph - N/A   Mostly Cloudy
2:35 AM 47.3 °F - 41.0 °F 79% 30.08 in 10.0 mi ESE 4.6 mph - N/A   Overcast
2:55 AM 47.3 °F - 41.4 °F 80% 30.09 in 10.0 mi Calm Calm - N/A   Overcast
3:15 AM 46.9 °F - 41.9 °F 83% 30.08 in 10.0 mi ESE 3.5 mph - N/A   Overcast
3:35 AM 46.4 °F 43.5 °F 42.4 °F 86% 30.06 in 10.0 mi East 5.8 mph - N/A Rain Light Rain
3:55 AM 46.4 °F 45.2 °F 42.8 °F 87% 30.06 in 10.0 mi East 3.5 mph - N/A Rain Light Rain
4:15 AM 46.4 °F 43.5 °F 43.2 °F 88% 30.05 in 7.0 mi East 5.8 mph - 0.02 in Rain Rain
4:35 AM 46.4 °F 43.5 °F 43.3 °F 89% 30.03 in 5.0 mi ESE 5.8 mph - 0.05 in Rain Light Rain
4:55 AM 45.9 °F 42.9 °F 43.2 °F 90% 30.02 in 5.0 mi ESE 5.8 mph - 0.07 in Rain Light Rain
5:15 AM 45.5 °F 42.5 °F 43.2 °F 92% 30.00 in 5.0 mi ESE 5.8 mph - 0.04 in Rain Rain
5:35 AM 45.7 °F 42.0 °F 43.7 °F 93% 29.98 in 5.0 mi ESE 6.9 mph 18.4 mph 0.10 in Rain Rain
5:55 AM 45.7 °F 41.5 °F 43.9 °F 93% 29.96 in 5.0 mi ESE 8.1 mph - 0.15 in Rain Rain
6:15 AM 46.0 °F 41.0 °F 44.6 °F 95% 29.94 in 5.0 mi ESE 10.4 mph 18.4 mph 0.03 in Rain Light Rain
6:35 AM 46.4 °F 42.9 °F 44.8 °F 94% 29.92 in 5.0 mi ESE 6.9 mph 18.4 mph 0.04 in Rain Light Rain
6:55 AM 46.9 °F - 45.3 °F 94% 29.91 in 5.0 mi ESE 8.1 mph - 0.08 in Rain Rain
7:15 AM 47.3 °F - 45.7 °F 94% 29.91 in 4.0 mi ESE 5.8 mph - 0.04 in Rain Rain
7:35 AM 47.3 °F - 45.9 °F 95% 29.91 in 4.0 mi ESE 4.6 mph - 0.11 in Rain Rain
7:55 AM 47.7 °F - 46.2 °F 95% 29.88 in 4.0 mi ESE 4.6 mph - 0.17 in Rain Rain
8:15 AM 47.8 °F - 46.4 °F 95% 29.88 in 4.0 mi SE 5.8 mph - 0.07 in Rain Heavy Rain
8:35 AM 48.0 °F - 46.6 °F 95% 29.86 in 2.5 mi SE 9.2 mph 16.1 mph 0.18 in Rain Rain
8:55 AM 48.2 °F - 46.6 °F 94% 29.86 in 4.0 mi ESE 6.9 mph - 0.23 in Rain Light Rain
9:15 AM 48.2 °F - 46.8 °F 95% 29.85 in 2.5 mi SE 5.8 mph - 0.06 in Rain Rain
9:35 AM 48.4 °F - 46.9 °F 95% 29.85 in 4.0 mi SE 4.6 mph - 0.11 in Rain Rain
9:55 AM 48.6 °F - 47.3 °F 95% 29.85 in 3.0 mi SE 4.6 mph - 0.17 in Rain Rain
10:15 AM 49.1 °F - 47.5 °F 94% 29.83 in 3.0 mi ESE 5.8 mph - 0.05 in Rain Light Rain
10:35 AM 49.1 °F - 47.7 °F 95% 29.83 in 5.0 mi SE 5.8 mph - 0.08 in Rain Light Rain
10:55 AM 49.3 °F - 47.8 °F 95% 29.83 in 5.0 mi SE 5.8 mph - 0.08 in   Drizzle
11:15 AM 49.5 °F - 48.0 °F 95% 29.81 in 1.5 mi SE 4.6 mph - 0.01 in   Heavy Drizzle
11:35 AM 50.0 °F - 48.6 °F 95% 29.81 in 2.0 mi SE 3.5 mph - 0.03 in Rain Light Rain
11:55 AM 50.0 °F - 48.7 °F 95% 29.79 in 2.5 mi SE 4.6 mph - 0.03 in   Overcast
12:15 PM 50.5 °F - 49.3 °F 95% 29.79 in 3.0 mi SE 4.6 mph - N/A   Overcast
12:35 PM 50.9 °F - 49.5 °F 95% 29.79 in 4.0 mi SE 5.8 mph - N/A   Overcast
12:55 PM 50.9 °F - 49.5 °F 95% 29.77 in 1.5 mi SE 8.1 mph - N/A Rain Rain
1:15 PM 50.9 °F - 49.6 °F 95% 29.76 in 1.5 mi SE 4.6 mph - N/A Rain Light Rain
1:35 PM 51.1 °F - 50.0 °F 96% 29.75 in 1.5 mi SE 4.6 mph - N/A   Light Drizzle
1:55 PM 51.4 °F - 50.2 °F 95% 29.74 in 2.5 mi SE 3.5 mph - 0.01 in   Overcast
2:15 PM 51.8 °F - 50.5 °F 95% 29.73 in 2.5 mi SE 3.5 mph - N/A   Overcast
2:35 PM 51.8 °F - 50.4 °F 95% 29.73 in 1.8 mi Calm Calm - N/A   Overcast
2:55 PM 51.8 °F - 50.5 °F 95% 29.72 in 2.0 mi Calm Calm - N/A   Overcast
3:15 PM 51.8 °F - 50.7 °F 96% 29.71 in 4.0 mi Calm Calm - N/A   Overcast
3:35 PM 52.2 °F - 51.1 °F 96% 29.71 in 3.0 mi Calm Calm - N/A   Overcast
3:55 PM 51.8 °F - 50.7 °F 96% 29.70 in 1.8 mi SE 5.8 mph - N/A   Overcast
4:15 PM 52.0 °F - 50.9 °F 96% 29.70 in 1.5 mi Calm Calm - N/A   Overcast
4:35 PM 52.0 °F - 50.9 °F 96% 29.70 in 1.5 mi Calm Calm - N/A   Overcast
4:55 PM 52.0 °F - 50.9 °F 96% 29.70 in 1.0 mi Calm Calm - N/A   Overcast
5:15 PM 51.8 °F - 50.9 °F 97% 29.70 in 1.2 mi Calm Calm - N/A   Overcast
5:35 PM 52.0 °F - 50.9 °F 96% 29.70 in 1.2 mi Calm Calm - N/A   Overcast
5:55 PM 52.0 °F - 50.9 °F 96% 29.69 in 2.0 mi Calm Calm - N/A Rain Light Rain
6:15 PM 52.0 °F - 50.9 °F 96% 29.69 in 1.8 mi Calm Calm - N/A   Overcast
6:35 PM 51.8 °F - 50.9 °F 97% 29.69 in 1.8 mi Calm Calm - 0.02 in   Heavy Drizzle
6:55 PM 50.9 °F - 49.8 °F 96% 29.70 in 2.0 mi Calm Calm - 0.11 in Rain Heavy Rain
7:15 PM 50.2 °F - 48.9 °F 95% 29.70 in 4.0 mi Calm Calm - 0.01 in   Drizzle
7:55 PM 49.3 °F - 47.8 °F 95% 29.70 in 7.0 mi WSW 4.6 mph - 0.01 in   Overcast
8:15 PM 48.7 °F - 47.3 °F 95% 29.71 in 10.0 mi WSW 4.6 mph - N/A   Overcast
8:35 PM 48.4 °F - 46.8 °F 94% 29.71 in 10.0 mi Calm Calm - N/A   Overcast
8:55 PM 48.2 °F - 46.4 °F 93% 29.71 in 10.0 mi Calm Calm - N/A   Overcast
9:15 PM 47.8 °F - 46.4 °F 95% 29.72 in 10.0 mi SW 3.5 mph - N/A   Overcast
9:35 PM 47.3 °F - 45.7 °F 94% 29.72 in 10.0 mi Calm Calm - N/A   Overcast
9:55 PM 46.9 °F - 45.5 °F 95% 29.72 in 10.0 mi Calm Calm - N/A   Overcast
10:15 PM 46.8 °F - 45.1 °F 94% 29.72 in 10.0 mi Calm Calm - N/A   Overcast
10:35 PM 46.8 °F - 45.1 °F 94% 29.72 in 10.0 mi Calm Calm - N/A   Overcast
10:55 PM 46.6 °F - 45.1 °F 95% 29.72 in 10.0 mi Calm Calm - N/A   Overcast
11:15 PM 46.6 °F - 45.1 °F 95% 29.72 in 10.0 mi WSW 3.5 mph - N/A   Overcast
11:35 PM 46.4 °F 44.3 °F 44.6 °F 93% 29.72 in 7.0 mi WSW 4.6 mph - N/A   Overcast
11:55 PM 46.0 °F 43.9 °F 44.2 °F 93% 29.71 in 7.0 mi WSW 4.6 mph - N/A Rain Light Rain